Glasgow, MT

1:56 PM MDT on May 25, 2017 (GMT -0600)
Wokal-Glasgow International

Weather History for KGGW - October, 2012

Change the Weather History Date:

Tuesday, October 30, 2012

  Actual Average Record
Temperature  
Mean Temperature 44 °F 38 °F  
Max Temperature 60 °F 50 °F 83 °F (1950)
Min Temperature 28 °F 27 °F -6 °F (1991)
Degree Days  
Heating Degree Days 21 27  
Month to date heating degree days 694 603  
Since 1 July heating degree days 850 897  
Cooling Degree Days 0 0  
Month to date cooling degree days 0 0  
Year to date cooling degree days 681 532  
Moisture  
Dew Point 34 °F    
Average Humidity 73    
Maximum Humidity 100    
Minimum Humidity 46    
Precipitation  
Precipitation 0.00 in 0.02 in 0.33 in (1943)
Month to date precipitation 0.98 0.74  
Year to date precipitation 11.83 10.85  
Snow  
Snow 0.00 in 0.00 in 2.00 in (2006)
Month to date snowfall 1.0 1.2  
Since 1 July snowfall 1.0 1.4  
Since 1 September snowfall 1.0 1.4  
Snow Depth 0.00 in    
Sea Level Pressure  
Sea Level Pressure 29.97 in    
Wind  
Wind Speed 6 mph (ESE)    
Max Wind Speed 13 mph    
Max Gust Speed 14 mph    
Visibility 6 miles    
Events Fog    
T = Trace of Precipitation, MM = Missing Value Source: NWS Daily Summary

Daily Weather History Graph

Daily Weather History Graph

Search for Another Location

Airport or City:

Trip Planner

Search our weather history database for the weather conditions in past years. The results will help you decide how hot, cold, wet, or windy it might be!

Date:

Astronomy

Oct. 30, 2012 Rise Set
Actual Time 7:49 AM MDT 5:49 PM MDT
Civil Twilight 7:17 AM MDT 6:22 PM MDT
Nautical Twilight 6:40 AM MDT 6:58 PM MDT
Astronomical Twilight 6:04 AM MDT 7:35 PM MDT
Moon 6:14 PM MDT (10/30) 8:45 AM MDT (10/30)
Length of Visible Light 11h 05m
Length of Day
10h 00m
Full, 99% of the Moon is Illuminated
Oct 30
Full
Nov 6
Last Quarter
Nov 13
New
Nov 20
First Quarter
Nov 28
Full

Hourly Weather History & Observations

Time (MDT) Temp. Windchill Dew Point Humidity Pressure Visibility Wind Dir Wind Speed Gust Speed Precip Events Conditions
12:01 AM 35.6 °F 29.9 °F 35.6 °F 100% 29.88 in 0.8 mi ESE 6.9 mph - N/A   Overcast
12:13 AM 37.4 °F 32.1 °F 35.6 °F 93% 29.88 in 0.2 mi ESE 6.9 mph - N/A Fog Fog
12:53 AM 36.0 °F 30.3 °F 36.0 °F 100% 29.96 in 0.2 mi SE 6.9 mph - N/A Fog Fog
1:53 AM 33.1 °F 28.7 °F 33.1 °F 100% 29.97 in 0.2 mi SE 4.6 mph - N/A Fog Fog
2:33 AM 32.0 °F - 30.2 °F 93% 29.92 in 0.5 mi Calm Calm - N/A Fog Fog
2:44 AM 30.2 °F - 30.2 °F 100% 29.92 in 0.2 mi Calm Calm - N/A Fog Light Freezing Fog
2:53 AM 32.0 °F - 30.9 °F 96% 29.99 in 0.2 mi Calm Calm - N/A Fog Fog
3:25 AM 30.2 °F - 30.2 °F 100% 29.93 in 0.5 mi Calm Calm - N/A Fog Light Freezing Fog
3:37 AM 30.2 °F - 30.2 °F 100% 29.93 in 1.5 mi Calm Calm - N/A   Mostly Cloudy
3:43 AM 30.2 °F - 30.2 °F 100% 29.92 in 3.0 mi Calm Calm - N/A   Scattered Clouds
3:53 AM 30.0 °F 25.2 °F 28.9 °F 96% 30.00 in 4.0 mi East 4.6 mph - N/A   Partly Cloudy
4:40 AM 30.2 °F 24.3 °F 28.4 °F 93% 29.93 in 6.0 mi SE 5.8 mph - N/A   Mostly Cloudy
4:49 AM 30.2 °F 25.4 °F 28.4 °F 93% 29.94 in 1.8 mi SE 4.6 mph - N/A   Scattered Clouds
4:53 AM 30.0 °F 25.2 °F 28.9 °F 96% 30.02 in 1.0 mi ESE 4.6 mph - N/A   Mist
4:59 AM 28.4 °F 22.2 °F 28.4 °F 100% 29.94 in 1.5 mi SE 5.8 mph - N/A   Partly Cloudy
5:16 AM 28.4 °F 22.2 °F 28.4 °F 100% 29.95 in 3.0 mi SE 5.8 mph - N/A   Clear
5:53 AM 28.9 °F 25.2 °F 28.0 °F 96% 30.03 in 7.0 mi ESE 3.5 mph - N/A   Clear
6:53 AM 30.0 °F - 28.9 °F 96% 30.03 in 7.0 mi Calm Calm - N/A   Clear
7:53 AM 30.9 °F - 30.0 °F 96% 30.03 in 10.0 mi Calm Calm - N/A   Clear
8:53 AM 32.0 °F - 32.0 °F 100% 30.04 in 10.0 mi Calm Calm - N/A   Clear
9:53 AM 37.0 °F 34.5 °F 36.0 °F 96% 30.04 in 10.0 mi East 3.5 mph - N/A   Clear
10:53 AM 41.0 °F 39.0 °F 39.0 °F 93% 30.04 in 10.0 mi SE 3.5 mph - N/A   Clear
11:53 AM 46.9 °F - 41.0 °F 80% 30.02 in 10.0 mi ESE 3.5 mph - N/A   Clear
12:53 PM 51.1 °F - 41.0 °F 68% 30.00 in 10.0 mi ESE 5.8 mph - N/A   Clear
1:53 PM 54.0 °F - 42.1 °F 64% 29.96 in 10.0 mi ESE 9.2 mph - N/A   Clear
2:53 PM 57.9 °F - 42.1 °F 56% 29.96 in 10.0 mi SSE 9.2 mph - N/A   Clear
3:53 PM 60.1 °F - 39.9 °F 47% 29.95 in 10.0 mi SE 6.9 mph - N/A   Clear
4:53 PM 57.2 °F - 41.0 °F 55% 29.91 in 10.0 mi SE 4.6 mph - N/A   Clear
5:53 PM 48.9 °F - 39.0 °F 69% 29.96 in 10.0 mi ESE 8.1 mph - N/A   Clear
6:53 PM 44.1 °F 39.0 °F 37.9 °F 79% 29.97 in 10.0 mi East 9.2 mph - N/A   Clear
7:53 PM 44.1 °F 38.6 °F 37.9 °F 79% 29.96 in 10.0 mi East 10.4 mph - N/A   Clear
8:53 PM 42.1 °F 36.1 °F 37.0 °F 82% 29.95 in 10.0 mi East 10.4 mph - N/A   Clear
9:53 PM 43.0 °F 36.4 °F 37.0 °F 80% 29.94 in 10.0 mi ESE 12.7 mph - N/A   Scattered Clouds
10:53 PM 41.0 °F 34.3 °F 36.0 °F 82% 29.94 in 10.0 mi ESE 11.5 mph - N/A   Clear
11:53 PM 41.0 °F 34.7 °F 36.0 °F 82% 29.92 in 10.0 mi ESE 10.4 mph - N/A   Clear